Regional Weather Roundup
Issued by NWS Charleston, SC

Current Version | Previous Version | Text Only | Print | Product List | Glossary Off
Versions: 1 2 3 4 5 6 7 8 9 10 11 12 13 14 15 16 17 18 19 20 21 22 23 24 25 26 27 28 29 30 31 32 33 34 35 36 37 38 39 40 41 42 43 44 45 46 47 48 49 50

937
ASUS42 KCHS 270112
RWRCHS

Regional Weather Roundup
National Weather Service Charleston SC
900 PM EDT THU APR 26 2018

NOTE: "fair" indicates few or no clouds below 12,000 feet with no
significant weather and/or obstructions to visibility.

Not all stations are quality controlled. Use data with caution,
especially dewpoint observations.

SCZ027-030-031-034>040-042>050-270200-
...Southeast South Carolina...

CITY           SKY/WX    TMP DP  RH WIND       PRES   REMARKS
N Charleston   FAIR      66  58  75 S6        29.84R
Waterfront Prk NOT AVBL
Mount Pleasant FAIR      64  61  88 S3        29.85S
Johns Island   FAIR      64  63  94 CALM      29.84F
Pinopolis        N/A    N/A N/A N/A VRB3      29.75R
Moncks Corner  FAIR      64  55  72 S3        29.84R
Summerville    FAIR      66  59  77 CALM      29.85R
Beaufort MCAS  FAIR      69  65  86 S3        29.83R
Beaufort Arpt  FAIR      66  61  82 S3        29.83S
Hilton Head Is MOCLDY    68  63  83 S5        29.84S
Walterboro     FAIR      66  59  77 CALM      29.84S
Allendale      FAIR      66  55  68 CALM      29.81F

...Southern Midlands and Pee Dee...

CITY           SKY/WX    TMP DP  RH WIND       PRES   REMARKS
Georgetown     FAIR      63  63 100 SW6       29.86R
Kingstree      FAIR      64  61  88 CALM      29.83S
Orangeburg     FAIR      66  55  67 NW5       29.83S
Barnwell       DRIZZLE   64  57  77 W6        29.85R
Aiken          RAIN      57  55  94 E5        29.87F
Manning        FAIR      61  54  77 CALM      29.83S
Columbia       LGT RAIN  66  55  67 N7        29.84S
Sumter         CLOUDY    68  55  64 NW13G20   29.82R
Florence       FAIR      70  58  65 SW3       29.82R
Myrtle Beach   FAIR      66  60  81 S9        29.85R
N Myrtle Beach FAIR      66  60  81 S12       29.83S

$$

GAZ063-065-086>088-099>101-113>116-118-119-134>141-150-270200-
...Southeast Georgia...

CITY           SKY/WX    TMP DP  RH WIND       PRES   REMARKS
Savannah Arpt  MOCLDY    69  61  75 S12       29.82R
Hunter AAF     FAIR      69  62  78 SE7       29.79F
Fort Stewart   FAIR      69  62  77 SE5       29.79R
Statesboro     CLOUDY    69  53  54 N3        29.82R
Sylvania       CLOUDY    67  58  72 NE6       29.82S
Claxton        CLOUDY    70  64  81 CALM      29.80R

...CSRA, Central and far Southeast Georgia...

CITY           SKY/WX    TMP DP  RH WIND       PRES   REMARKS
Thomson        MOCLDY    58  55  92 S3        29.87S
Augusta-Bush   LGT RAIN  62  60  93 E6        29.83F
Augusta-Daniel LGT RAIN  62  57  83 SE8       29.82F
Swainsboro     RAIN      61  59  94 NE3       29.85F
Vidalia        RAIN      63  57  82 N9        29.85R
Eastman        CLOUDY    62  54  76 E6        29.87R
Hazlehurst     LGT RAIN  64  60  88 N7        29.84S
Alma           CLOUDY    74  56  53 SW5       29.81R
Waycross       FAIR      73  59  59 SW8       29.82R
Jesup          FAIR      72  57  60 CALM      29.82R
Baxley         CLOUDY    72  55  56 NW14      29.82R
Brunswick      FAIR      70  61  73 S8        29.84R
Saint Simons   FAIR      70  66  87 S12G17    29.83R

$$

SCZ027-028-034-036>038-045-046-048>050-GAZ119-141-270200-
...Lake and Supplemental Coastal Observations...

STATION/POSITION TIME  TEMP    WIND        PRES    WAVE   SWELL
                       AIR SEA DIR/SP/G            HT/PER HT/PER/DIR
                 (UTC) (F)     (DEG/KT/KT) (MB)    (FT/S) (FT/S/D)
Winyah Bay       2345   69     210/ 11     1010.0
Lake Murray      0020   63      CALM  /  6 1010.2
ACE Basin NERRS  2345   69        CALM       N/A
Fort Pulaski     0048   68 67  180/  4/  6 1010.3R
Sapelo Island    0000   70     170/ 11     1009.0

$$

ANZ835-935-AMZ111-154-330-350-352-354-370-450-454-472-270200-
...C-MAN and Buoy Observations...

STATION/POSITION TIME  TEMP    WIND        PRES    WAVE   SWELL
                       AIR SEA DIR/SP/G            HT/PER HT/PER/DIR
                 (UTC) (F)     (DEG/KT/KT) (MB)    (FT/S) (FT/S/D)
Buoy 41004       0050      70  200/  4/  6 1010.6R   4/ 9   3/120/ 9
Buoy 41008       0050   68 67  170/ 14/ 14 1009.6R   2/ 9   2/100/ 9
Folly Beach CMAN 0000   67     200/  6/  7 1011.0R
Capers Nearshore 0008   67 67  190/  6/ 10 1010.7S
Fripp Nearshore  0008   67 67  190/  8/ 12 1009.7R


STATION/POSITION TIME  TEMP    WIND        PRES    WAVE   SWELL
                       AIR SEA DIR/SP/G            HT/PER HT/PER/DIR
                 (UTC) (F)     (DEG/KT/KT) (MB)    (FT/S) (FT/S/D)
5E St. Marys GA  0100      69                N/A     3/ 9
Frying Pan Buoy  0050   71 71  220/  6/  6 1011.0R   4/ 9   3/110/ 9
Buoy 41025       0050   73 71  150/ 16/ 19 1012.0R   6/ 9   7/100/ 9
Cape Lookout NC  0000          220/  7/ 10 1011.5R
Buoy 41002       0050   73 74  180/ 12/ 16 1013.8R   5/ 9   3/100/ 9
Buoy 41010       0050   75 76  200/ 14/ 19 1013.2R   5/ 9   3/ 70/ 9
St Augustine FL  0100   73 71  220/  5/  6 1011.4R


$$




USA.gov is the U.S. government's official web portal to all federal, state and local government web resources and services.